Hourly Data Report for June 25, 2017

DRYDEN REGIONAL
ONTARIO

49°49'39.000" N
92°44'39.000" W
412.70 m
6032125
71527
YHD

Download Data

Hourly Data (June 2017)
Hourly Data Report for June 25, 2017
TIME
LST
Temp Definition
°C
Dew Point Definition
°C
Rel Hum Definition
%
Precip. Amount Definition
mm

Wind Dir Definition
10's deg

Wind Spd Definition
km/h
Visibility Definition
km
Stn Press Definition
kPa
Hmdx Definition


Wind Chill Definition


Weather Definition


00:00 9.3 8.4 94 0.0 35 9 16.1 96.90     LegendNANA
01:00 9.0 8.3 95 0.0 34 9 16.1 96.91     LegendNANA
02:00 9.2 8.3 94 0.0 35 11 16.1 96.89     LegendNANA
03:00 9.0 7.9 93 0.0 34 13 16.1 96.91     LegendNANA
04:00 8.5 7.4 93 0.0 35 11 16.1 96.95     LegendNANA
05:00 8.4 7.2 92 0.0 36 13 16.1 96.99     LegendNANA
06:00 8.6 7.3 92 0.0 36 13 16.1 97.02     LegendNANA
07:00 9.2 7.5 89 0.0 2 11 16.1 97.06     LegendNANA
08:00 10.5 7.8 83 0.0 3 11 16.1 97.09     LegendNANA
09:00 11.8 6.0 67 0.0 2 15 16.1 97.10     LegendNANA
10:00 12.3 6.3 67 0.0 5 13 16.1 97.11     LegendNANA
11:00 12.6 5.4 61 0.0 1 13 16.1 97.12     LegendNANA
12:00 13.6 4.6 54 0.0 2 11 16.1 97.10     LegendNANA
13:00 12.3 5.8 64 0.0 34 9 16.1 97.12     Rain
14:00 13.8 4.8 54 0.0 2 9 16.1 97.09     LegendNANA
15:00 13.5 4.8 55 0.0 3 5 16.1 97.09     LegendNANA
16:00 14.5 5.5 55 0.0 LegendMM 4 16.1 97.07     LegendNANA
17:00 14.2 5.5 56 0.0 LegendMM 8 16.1 97.06     LegendNANA
18:00 12.0 7.3 73 0.0 1 9 16.1 97.07     Rain
19:00 12.5 8.0 74 0.0 28 11 16.1 97.05     LegendNANA
20:00 11.4 8.3 81 0.0 26 8 16.1 97.05     LegendNANA
21:00 10.3 8.3 87 0.0 26 11 16.1 97.06     LegendNANA
22:00 9.8 7.6 86 0.0 29 8 16.1 97.06     LegendNANA
23:00 9.4 7.5 88 0.0 26 15 16.1 97.02     LegendNANA

Notes on Data Quality.

Legend

  • E = Estimated
  • M = Missing
  • NA = Not Available*
  • [empty] = Indicates an unobserved value
Date modified: